Overview Statistics Trail Chart Weather Telemetry Raw packets
 

This is the latest recevied weather packets stored in our database for station/object K8DJB-1. If no packets are shown the sender has not sent any weather packets the latest 10 day(s).

<< 109 110 111 112 113 114 115 >>
Time Temp. Humidity Pressure Rain* Wind** Luminosity Snow
1787773541 24.44° C 77% 1010.5 hPa 0 mm - - -
1787773241 23.89° C 77% 1010.6 hPa 0 mm - - -
1787772641 24.44° C 76% 1010.6 hPa 0 mm - - -
1787772041 24.44° C 75% 1010.5 hPa 0 mm - - -
1787771741 23.89° C 75% 1010.6 hPa 0 mm - - -
1787771441 23.89° C 75% 1010.7 hPa 0 mm - - -
1787771141 23.89° C 75% 1010.7 hPa 0 mm - - -
1787770541 23.89° C 75% 1010.7 hPa 0 mm - - -
1787770241 23.89° C 74% 1010.7 hPa 0 mm - - -
1787769941 23.89° C 74% 1010.6 hPa 0 mm - - -
1787769641 23.89° C 74% 1010.7 hPa 0 mm - - -
1787769041 23.89° C 74% 1010.7 hPa 0.25 mm - - -
1787768741 23.89° C 74% 1010.8 hPa 0.25 mm - - -
1787768441 23.89° C 74% 1010.9 hPa 0.25 mm - - -
1787768141 23.33° C 75% 1010.9 hPa 0.25 mm - - -
1787767241 22.78° C 76% 1011 hPa 0.25 mm - - -
1787766941 22.78° C 75% 1011.1 hPa 0.25 mm - - -
1787766641 22.78° C 76% 1011.3 hPa 0.25 mm - - -
1787766041 22.78° C 75% 1011.1 hPa 0.25 mm - - -
1787765632 23.33° C 74% 1011.3 hPa 0 mm - - -
1787765230 23.33° C 72% 1011.2 hPa 0 mm - - -
1787764436 25° C 68% 1011 hPa 0 mm - - -
1787764093 25.56° C 66% 1010.9 hPa 0 mm - - -
1787763509 25.56° C 65% 1010.9 hPa 0 mm - - -
1787763209 25° C 66% 1010.9 hPa 0 mm - - -

* Rain latest hour (hover to see other rain measurements)
** Current wind speed in m/s (hover to see current wind gust speed)